GFSWCAN_sfc_rhum_273.txt.gz
RH
81 80 80 80 80 79 77 73 74 72 72 72 72 73 74 76 80 80 64 54 65 68 57 48 47 55 48 46 59 52 37 31 36 46 39 31 33 27 35 35 40 49 46 48 44 46 58 33 34 51 51 43 40 40
81 81 80 81 81 80 79 75 72 72 73 74 74 74 75 77 79 81 65 49 44 59 52 41 44 43 41 34 44 46 51 50 38 43 41 40 37 40 40 40 37 37 37 42 43 57 45 39 38 39 40 45 42 41
82 82 81 82 82 81 80 79 73 72 73 73 74 74 75 77 78 78 68 59 55 58 48 45 46 36 29 43 34 56 55 43 47 36 51 48 49 45 46 47 36 30 37 46 41 49 37 38 41 39 36 38 36 37
80 80 80 82 82 82 81 80 76 73 75 76 75 75 76 78 79 79 65 56 57 55 60 42 30 34 23 33 45 42 45 45 49 45 50 49 48 35 40 41 38 44 41 45 51 61 49 49 45 41 39 35 36 48
83 82 82 83 83 82 80 79 80 77 76 78 77 77 77 79 81 79 62 53 51 60 63 60 48 37 26 26 36 42 48 76 74 46 46 47 40 42 41 39 41 40 53 59 72 57 66 53 47 38 43 40 51 66
86 84 85 85 84 83 82 80 79 78 79 79 79 79 78 81 82 60 62 53 57 66 68 72 49 43 30 27 30 44 36 45 96 42 41 36 28 43 51 54 49 48 48 49 53 44 42 44 36 35 42 40 57 66
84 86 86 85 84 83 82 80 78 79 79 79 80 83 83 86 94 67 71 73 73 67 74 68 85 51 32 28 34 37 29 42 42 43 45 46 49 47 50 53 48 44 46 43 39 44 48 39 50 39 38 48 60 57
84 86 86 84 81 78 78 79 78 77 77 78 79 82 84 84 90 86 67 79 73 64 65 69 91 87 45 42 48 38 44 44 48 46 43 50 55 63 56 59 52 44 39 42 42 40 44 50 45 45 46 59 75 79
87 82 78 75 75 75 73 73 74 74 75 79 81 81 76 80 86 73 75 80 60 73 79 71 85 91 44 40 42 44 45 50 45 47 48 47 60 67 59 65 58 49 55 54 44 44 39 45 46 53 65 76 82 85
79 79 80 78 76 72 74 75 74 77 81 82 75 70 87 69 85 81 83 74 66 63 66 64 76 91 73 45 47 48 48 51 55 49 44 53 56 70 69 68 64 54 47 47 58 67 79 81 87 90 88 83 87 89
78 78 78 77 74 72 74 73 78 83 77 70 72 90 98 92 97 93 95 75 66 64 57 52 73 87 80 89 54 50 53 52 52 52 48 53 63 78 70 70 66 56 50 60 68 73 75 84 91 91 92 80 85 86
77 78 79 81 81 79 76 76 79 77 69 74 83 94 97 98 98 99 91 83 75 61 48 47 69 91 97 98 93 81 57 54 50 40 50 51 79 79 74 68 65 60 73 72 75 80 81 83 86 88 89 91 93 93
76 77 79 81 81 81 82 81 81 82 78 71 95 93 98 96 100 96 78 73 77 51 44 44 72 88 98 98 96 95 86 61 52 54 51 83 84 78 78 72 70 69 70 74 74 75 79 79 78 81 86 85 87 89
80 80 82 85 84 79 79 78 78 77 75 98 96 100 97 92 82 81 86 68 52 48 44 48 70 80 96 97 98 94 92 93 61 54 73 92 84 84 83 76 77 83 74 75 76 74 75 77 79 78 76 77 80 86
85 84 83 81 76 71 69 68 73 68 96 96 97 98 96 89 81 83 72 82 77 63 66 66 64 60 84 97 96 91 80 87 65 75 88 84 86 94 94 87 86 84 81 76 72 77 80 81 84 86 85 86 90 94
85 82 75 75 69 70 75 73 68 76 96 99 97 98 95 95 84 89 89 90 90 92 92 80 83 80 90 91 79 77 70 67 84 87 90 81 88 91 85 82 77 78 75 71 75 76 77 79 81 80 78 80 80 79
82 85 78 71 72 78 80 72 73 79 86 91 97 96 96 92 96 91 91 96 93 90 95 93 77 84 87 85 81 80 86 92 92 98 92 90 90 87 81 76 74 72 70 71 77 77 76 72 71 73 78 73 67 70
79 87 70 67 71 70 67 76 77 72 71 73 90 94 94 86 81 91 94 94 96 93 96 93 89 78 84 85 90 95 96 95 97 94 94 93 84 84 87 87 80 77 78 78 76 75 72 71 71 72 71 68 66 64
74 72 70 70 70 74 83 66 68 73 74 81 77 93 89 76 74 87 93 94 98 96 93 91 86 94 96 97 94 94 96 94 96 95 94 86 80 80 76 73 75 75 77 78 74 69 72 69 60 63 61 67 58 61
82 84 83 75 68 76 83 77 68 70 84 84 74 94 81 84 80 93 93 94 98 97 96 96 97 100 100 100 98 99 96 96 90 89 90 78 73 73 76 72 70 72 72 69 56 61 58 52 41 47 48 50 48 47
71 69 76 67 72 77 83 86 90 90 91 84 94 93 96 95 93 96 94 96 98 99 98 99 99 99 98 98 98 98 94 94 95 93 90 80 76 71 71 70 72 83 81 81 54 48 52 46 42 40 43 47 47 46
86 74 72 77 80 79 82 76 86 86 95 95 91 95 98 98 97 96 90 94 99 100 99 99 99 100 99 98 97 96 91 82 88 89 90 80 76 87 86 71 70 70 68 64 57 45 48 48 46 46 44 44 46 42
78 78 77 78 87 90 96 88 90 91 94 92 95 94 97 98 89 73 91 98 99 99 97 98 96 97 98 95 90 87 89 91 92 92 81 82 83 88 89 85 83 66 62 59 49 43 46 53 43 44 43 46 50 46
82 76 86 90 94 94 94 96 97 97 96 94 96 96 95 95 71 86 97 98 99 99 98 97 94 98 95 92 97 90 81 74 74 76 76 75 76 81 73 66 62 59 46 40 38 42 44 46 46 39 43 40 41 46
90 88 90 100 86 87 86 96 95 97 90 94 96 95 92 85 96 96 98 99 99 99 98 97 97 97 98 98 98 96 90 76 71 71 70 69 66 61 62 50 43 42 37 39 39 39 43 39 39 41 36 38 41 39
98 75 94 83 85 75 68 79 80 88 94 94 95 97 95 93 92 99 98 96 91 91 96 94 92 98 99 98 97 96 92 91 83 71 74 48 48 44 44 44 44 45 35 38 36 35 35 35 36 36 33 36 44 35
94 90 86 85 84 73 75 70 72 80 81 86 91 93 87 84 94 94 88 87 82 75 74 76 82 86 82 79 81 84 78 74 72 60 55 48 36 34 39 43 41 48 36 32 34 32 32 31 30 30 31 35 37 36
76 69 86 89 88 83 84 84 86 80 76 72 86 92 74 71 86 84 77 76 77 78 76 71 69 69 68 64 63 65 64 59 55 42 36 31 31 29 33 37 42 55 42 37 35 33 33 36 37 34 33 36 39 37
84 86 87 88 90 92 86 81 78 68 74 81 83 73 70 68 59 59 64 59 54 58 64 63 56 50 51 46 47 48 44 35 36 41 40 36 34 30 27 30 34 35 33 32 55 44 38 34 34 33 37 41 41 41
66 73 82 78 77 74 68 71 68 54 59 55 54 61 61 57 50 46 47 48 47 40 30 27 26 28 33 33 35 35 27 24 23 29 38 37 33 26 28 28 28 27 32 29 31 34 58 45 42 40 40 40 41 43
59 55 61 60 71 67 61 56 54 48 50 50 49 52 52 50 44 41 40 44 37 32 26 24 23 22 23 24 28 31 27 30 33 31 25 23 22 30 33 34 31 30 31 30 32 32 33 36 39 40 39 40 40 40
60 67 56 64 68 58 62 59 53 64 64 65 59 50 46 50 49 44 43 37 34 29 41 30 21 21 20 20 24 28 37 25 31 31 35 31 32 34 31 29 28 28 32 32 33 32 34 36 37 38 36 40 42 42
55 58 51 54 64 56 49 47 54 62 54 58 53 50 43 51 50 41 42 38 37 32 31 28 23 24 32 26 30 32 36 35 53 66 66 66 62 47 30 30 31 31 30 33 32 32 36 38 38 42 43 43 42 41

GFSWCAN_sfc_rhum_276.txt.gz
RH
83 81 82 81 82 82 81 80 76 74 73 73 73 73 74 76 79 94 85 68 71 88 81 66 65 66 68 70 76 62 52 39 43 47 43 38 32 27 34 35 30 33 44 47 51 52 63 39 38 44 53 54 45 42
82 82 82 82 82 83 83 82 80 74 74 73 73 73 74 76 79 82 98 59 53 79 75 50 48 48 58 55 69 64 67 69 63 49 54 52 43 49 41 41 50 40 39 44 45 51 48 48 42 47 46 43 46 44
81 82 83 83 83 83 84 82 81 78 73 75 75 74 74 76 78 82 98 72 66 77 67 58 63 46 78 72 53 76 71 58 61 59 60 54 43 53 51 48 41 45 46 48 49 55 52 48 49 40 40 40 56 69
82 81 82 82 84 84 84 82 81 80 76 76 77 76 76 76 78 78 96 67 67 74 83 68 42 57 59 68 64 64 65 63 70 74 57 58 43 44 44 41 50 47 47 59 71 69 55 50 47 44 41 44 69 69
88 86 84 84 85 85 83 83 81 81 79 79 79 78 78 78 83 81 93 74 59 77 89 74 53 48 46 49 58 65 77 83 84 70 51 42 50 44 54 52 58 56 54 61 70 61 61 56 49 43 41 69 73 72
86 88 88 88 88 86 84 83 82 81 81 80 80 80 80 82 86 95 96 71 59 76 99 97 84 61 51 45 52 61 82 86 94 89 68 53 49 50 59 72 57 58 55 58 59 52 46 41 41 41 63 73 72 79
83 84 86 87 87 86 85 85 82 81 81 81 80 82 85 87 97 97 96 88 78 74 97 99 97 72 53 51 48 49 60 67 78 94 81 66 54 54 59 66 54 54 44 41 39 40 45 48 50 62 66 67 72 78
83 86 86 86 85 80 81 81 80 79 78 77 78 82 84 85 90 97 90 89 83 76 86 97 95 84 70 60 47 45 52 54 44 74 87 65 58 63 60 65 60 50 44 46 46 50 52 49 67 68 64 72 82 86
89 87 86 83 76 76 76 75 76 78 81 82 84 83 94 96 98 79 82 82 77 85 96 91 95 87 80 61 52 51 52 50 48 46 50 52 70 57 56 66 53 47 49 53 72 71 75 82 76 76 77 82 88 90
84 85 86 81 78 78 78 80 79 82 84 84 93 93 98 78 86 86 94 94 78 81 96 97 96 94 90 92 62 56 62 50 57 48 47 53 60 64 56 60 57 58 54 56 71 94 93 96 85 85 87 89 82 83
82 84 82 80 80 80 80 80 80 84 81 94 86 94 98 91 98 98 98 96 89 95 92 86 88 95 95 91 89 72 60 65 57 54 49 63 74 86 78 67 73 83 80 84 89 91 92 93 89 90 93 91 88 93
81 83 84 86 86 84 85 83 84 81 78 84 80 93 99 99 99 99 97 97 94 82 79 80 82 94 97 98 97 98 80 68 57 67 56 65 79 87 78 88 87 86 85 88 89 91 90 92 93 95 97 98 98 96
84 83 84 86 86 85 86 86 84 85 85 83 99 99 98 96 98 95 93 95 95 77 66 87 94 94 98 98 98 98 92 90 90 66 59 79 94 93 95 93 91 89 86 86 87 88 89 92 91 94 93 87 87 90
85 86 86 87 86 85 80 78 79 82 88 99 95 100 97 95 92 91 95 97 90 84 84 79 96 96 98 97 99 97 91 98 81 68 76 97 99 98 96 92 91 91 87 86 87 85 88 88 90 89 90 90 90 95
87 88 88 88 85 82 78 77 78 83 96 99 96 98 96 91 92 87 90 97 95 95 95 92 96 95 98 97 97 96 94 85 86 86 94 98 98 96 96 94 94 92 90 88 86 89 91 92 95 97 96 96 96 96
84 86 88 78 80 78 79 83 80 82 99 99 98 98 95 97 95 94 95 98 97 98 97 97 94 91 96 96 97 90 84 83 86 92 100 98 98 97 97 94 91 90 88 86 88 90 90 91 93 96 95 94 92 88
80 90 81 79 79 80 81 85 81 88 96 95 98 98 97 98 98 96 97 99 98 97 97 96 92 96 98 95 90 90 89 90 98 99 99 98 95 94 94 94 92 90 86 85 84 83 84 84 80 76 81 81 81 80
84 90 80 77 82 82 82 84 87 92 84 90 98 97 97 90 94 97 97 98 99 96 95 94 96 96 90 90 92 95 94 97 99 99 99 99 97 96 94 93 85 82 84 81 78 85 86 81 80 83 81 78 75 67
79 86 80 82 83 86 91 86 86 91 85 87 89 94 95 97 93 96 98 99 99 98 97 96 95 98 97 99 100 97 98 98 99 99 98 95 90 82 76 76 80 79 79 85 91 88 80 78 72 74 72 68 65 71
87 86 86 83 78 85 92 92 84 89 91 93 90 95 94 98 98 99 98 98 98 98 98 98 100 100 100 99 99 99 99 97 97 97 91 80 75 70 71 69 76 90 93 90 81 75 58 56 68 73 73 74 67 69
85 84 82 86 84 84 91 96 92 92 95 92 94 98 99 98 99 99 99 99 98 99 99 100 99 99 99 99 99 99 99 97 98 95 94 93 84 81 88 91 85 83 83 79 64 64 46 41 49 54 52 55 55 53
95 80 88 80 91 89 95 94 93 91 94 95 97 98 99 99 99 99 98 98 99 100 100 100 100 99 99 99 99 99 96 94 95 87 90 85 79 84 88 78 73 73 70 65 55 50 55 58 57 53 50 52 53 49
84 88 94 92 95 95 95 92 90 92 95 95 96 95 98 99 97 89 99 99 99 99 98 100 99 99 99 97 94 94 94 92 91 91 81 74 73 81 87 81 73 68 73 66 57 51 50 58 58 51 54 54 47 45
84 90 94 95 96 97 96 97 97 98 96 95 96 97 97 97 85 93 99 99 99 99 99 99 98 99 97 95 98 97 92 86 81 83 77 71 82 81 76 76 77 80 60 52 47 50 53 46 52 47 50 47 52 54
97 93 98 100 93 96 95 96 97 97 94 96 97 97 97 93 96 97 99 99 99 99 99 98 98 98 99 98 97 96 91 78 74 78 79 73 74 87 89 87 81 72 55 50 49 48 48 44 41 43 46 46 42 40
98 80 96 87 92 90 88 90 93 96 95 95 97 97 96 93 94 99 97 98 96 97 97 96 95 98 99 98 96 95 95 91 68 68 69 64 68 72 68 52 45 43 50 48 50 48 45 43 45 38 37 41 49 37
96 87 89 89 96 93 89 87 92 95 94 93 96 95 92 92 97 89 87 89 88 89 95 88 88 90 97 97 87 89 85 76 63 52 51 36 40 47 57 54 45 45 43 41 43 40 38 38 39 35 38 45 42 38
86 78 87 89 93 96 95 93 93 93 93 90 93 91 85 83 88 79 79 80 87 86 85 84 80 72 76 76 74 74 68 62 57 52 40 44 45 42 43 48 48 59 45 44 43 42 40 40 39 37 38 40 42 43
88 88 87 90 89 92 92 93 90 81 82 87 90 89 88 87 79 74 76 76 78 79 90 92 93 90 87 86 84 79 78 72 75 54 39 46 46 41 44 41 45 45 39 38 56 44 34 37 36 36 43 47 50 53
78 80 84 81 80 82 79 80 78 70 76 75 78 82 79 77 74 70 69 75 80 82 78 80 73 76 79 79 75 75 71 64 49 41 45 48 45 42 38 37 36 39 42 39 38 38 52 44 48 43 44 46 50 51
74 81 78 72 75 72 69 65 62 68 66 67 74 78 80 76 68 68 71 66 63 60 56 52 54 57 57 56 55 54 48 48 35 34 38 44 35 41 42 42 41 45 47 40 42 42 40 43 46 48 50 52 51 54
72 75 72 75 74 66 69 69 68 70 69 68 68 70 72 71 67 62 60 56 55 47 50 45 41 40 40 44 44 46 52 45 47 46 43 46 46 44 41 40 36 37 39 40 46 44 43 40 46 50 51 52 53 50
66 70 68 67 71 63 64 63 65 66 65 68 68 68 62 66 67 62 58 57 52 53 56 54 43 33 34 37 40 47 52 45 52 66 64 60 56 50 42 46 48 41 39 43 45 46 49 49 53 52 54 53 52 48

GFSWCAN_sfc_rhum_279.txt.gz
RH
82 79 77 80 81 82 83 83 82 78 74 73 73 74 73 74 78 94 95 75 87 90 89 67 58 70 71 79 84 74 67 65 58 52 45 43 36 32 37 37 34 35 42 43 52 62 57 40 40 36 44 66 45 45
81 80 79 79 82 83 83 84 83 82 78 73 73 74 74 75 78 83 98 67 58 88 81 65 51 47 60 58 76 78 72 77 75 65 59 53 47 47 42 41 56 34 38 45 42 42 42 53 46 49 48 46 48 65
81 82 82 81 82 82 83 83 84 82 82 76 74 76 75 76 77 80 99 86 73 78 79 86 64 46 63 51 52 76 78 70 66 65 76 62 45 57 49 50 48 53 51 56 57 55 59 50 47 43 49 70 79 82
82 82 82 81 82 83 83 83 84 82 81 79 76 77 77 77 78 79 95 77 77 70 88 78 49 55 56 62 64 61 60 59 77 88 79 66 47 51 58 47 53 49 58 78 79 73 55 51 49 56 75 73 78 81
84 84 83 84 84 84 84 84 84 82 82 80 79 79 79 79 84 92 89 89 80 89 97 93 67 44 47 66 69 74 88 89 87 80 71 48 56 50 62 65 65 67 63 68 73 63 60 57 48 64 78 78 84 88
82 80 85 88 86 86 85 84 85 84 83 82 81 81 80 81 87 97 98 95 70 66 96 98 86 70 57 50 50 80 92 94 97 89 76 74 58 56 70 79 60 65 67 60 63 61 50 51 61 74 83 85 86 93
81 81 83 85 83 86 86 86 86 84 82 82 82 81 84 88 98 97 97 96 87 80 83 97 99 82 61 66 76 75 87 93 91 93 79 81 65 60 70 75 54 60 56 53 50 46 56 63 86 74 82 88 90 90
82 84 86 86 86 84 82 81 81 80 78 78 79 82 85 87 91 96 97 89 94 85 78 98 98 93 72 90 91 82 86 89 69 72 88 70 65 64 63 62 66 55 59 66 63 62 70 74 72 77 78 81 87 94
89 88 88 87 84 81 78 76 75 77 79 80 82 82 94 98 99 93 85 92 99 92 95 94 99 92 88 76 75 95 89 92 75 64 62 55 70 56 61 67 60 58 62 89 76 72 70 74 80 81 82 86 91 97
85 87 86 85 82 82 80 77 78 81 84 85 93 97 98 98 80 87 99 100 100 80 81 100 97 99 96 92 90 94 94 93 92 85 55 59 62 66 58 63 58 71 80 75 86 92 84 86 84 81 84 89 91 96
84 85 84 84 85 86 83 83 82 84 81 93 94 95 96 87 100 99 99 99 92 99 98 97 97 98 97 95 97 94 83 62 64 79 74 62 59 80 79 84 86 80 80 83 74 84 82 80 90 94 93 92 92 96
87 84 85 86 84 86 84 82 84 87 81 77 82 92 98 100 99 98 94 97 97 90 89 89 97 97 98 98 97 96 79 69 58 81 60 69 72 95 93 98 98 94 88 90 87 94 93 94 96 96 96 96 92 96
87 87 87 87 87 85 84 83 82 86 87 89 99 99 99 96 98 99 95 98 98 87 87 97 95 94 97 98 99 97 85 90 95 72 61 75 96 98 97 98 98 94 92 94 97 96 97 97 96 97 97 98 98 95
87 88 88 88 88 86 86 79 76 78 87 99 95 100 98 96 96 94 94 97 95 98 96 88 97 97 98 96 99 95 91 97 82 76 76 99 94 98 97 95 95 98 96 96 96 95 95 94 95 96 97 97 95 97
87 84 88 88 84 83 81 79 79 90 97 99 96 98 96 92 93 87 89 96 96 99 99 97 96 93 98 98 98 95 85 86 87 84 95 96 95 96 98 96 96 96 96 96 94 93 94 95 97 99 98 97 95 94
82 83 87 82 80 79 80 83 83 84 99 99 99 98 94 97 93 92 95 98 98 100 98 96 90 92 98 96 94 90 88 84 82 96 98 98 98 97 97 96 96 96 95 93 92 93 93 95 96 98 96 96 96 95
81 90 86 80 80 81 81 83 88 95 93 94 98 98 98 97 97 96 96 99 98 98 99 97 90 97 98 96 94 92 91 93 99 99 98 96 97 97 98 98 96 95 95 94 93 92 93 93 87 84 89 90 83 83
84 89 79 82 86 83 86 88 94 92 92 95 99 96 98 96 96 98 98 98 99 98 98 95 96 95 93 88 94 96 96 100 97 96 98 97 97 96 96 96 87 88 88 86 84 86 84 80 81 85 84 82 72 71
85 87 84 85 88 90 92 94 91 96 90 93 98 98 96 97 99 98 99 99 99 98 98 99 93 95 97 98 98 98 99 99 99 98 99 96 96 97 94 86 84 83 79 81 83 81 82 79 78 83 84 72 70 72
91 89 88 87 80 87 93 96 95 92 94 95 95 96 97 99 100 99 97 98 99 98 98 98 99 100 100 99 99 99 99 98 98 98 99 99 96 88 84 81 77 78 86 95 96 91 87 86 84 78 74 70 72 72
88 89 83 84 85 83 88 97 97 93 96 94 93 99 99 99 99 99 99 98 98 100 99 100 99 99 99 99 100 98 98 97 98 96 96 89 78 74 76 84 85 95 94 88 81 73 72 73 76 79 76 71 69 71
95 84 93 83 92 91 99 92 98 93 97 95 97 98 100 99 100 100 99 98 100 100 100 100 100 100 99 99 100 98 98 96 96 96 89 78 81 83 92 91 80 78 72 64 51 47 55 63 65 61 54 55 58 56
86 92 94 94 98 97 96 94 92 92 97 94 96 94 98 99 99 97 99 100 100 100 100 100 99 99 99 97 98 98 97 93 93 92 78 80 83 84 83 86 79 70 53 61 57 56 60 67 60 56 59 54 49 50
88 96 97 97 97 97 94 95 97 98 96 96 96 96 97 99 94 98 99 100 100 100 99 99 99 98 98 96 99 99 98 96 76 78 68 66 72 78 71 74 69 59 45 58 54 59 61 57 61 57 57 54 55 53
99 92 100 100 98 98 96 96 95 97 95 95 96 94 95 96 96 98 99 99 99 100 100 99 99 99 99 99 98 97 88 81 74 79 80 72 79 78 77 70 79 71 54 51 54 50 49 52 53 55 51 51 53 54
98 85 97 92 92 94 96 93 95 96 95 95 96 96 96 94 93 96 98 98 97 97 98 96 96 99 99 98 97 96 94 85 66 70 79 81 70 71 64 52 64 70 58 48 49 49 47 44 44 45 46 48 56 42
97 88 91 93 97 97 96 96 97 99 97 94 95 93 91 93 92 91 92 90 92 97 95 94 90 94 97 97 91 88 83 69 52 47 47 50 58 60 40 41 45 49 56 51 50 45 44 46 46 44 42 48 47 42
88 83 89 90 94 95 97 94 94 94 95 95 96 93 88 84 82 82 79 92 93 91 89 88 85 88 85 76 72 69 69 60 36 34 30 33 43 53 53 50 52 62 53 50 47 49 45 46 44 44 42 42 43 47
89 88 88 90 88 93 90 90 90 84 84 94 93 93 90 89 77 75 86 94 86 85 90 96 93 79 76 78 75 71 63 54 39 34 41 46 42 40 49 49 49 50 51 48 60 49 40 42 41 40 42 48 51 56
81 80 84 82 80 80 77 79 77 80 85 88 88 88 85 79 76 77 80 81 81 92 95 95 96 90 90 91 83 79 78 82 72 44 45 46 44 41 45 45 46 42 43 42 40 40 55 48 50 46 46 49 53 55
84 83 79 76 78 75 72 70 71 76 80 81 82 83 85 80 73 81 82 85 89 90 88 89 91 92 88 87 85 81 74 61 61 58 49 46 46 42 40 41 44 46 46 41 41 41 41 44 45 48 51 52 54 62
76 76 74 76 78 72 68 70 72 73 81 81 81 80 75 71 68 66 66 65 70 84 82 80 80 76 70 73 70 67 62 47 45 45 45 52 51 47 44 44 44 46 48 47 45 44 44 41 45 51 51 53 50 49
76 77 72 70 73 64 63 64 66 67 68 72 78 75 76 70 65 63 66 64 54 55 54 52 44 46 52 51 50 53 55 48 55 64 64 63 60 56 52 51 47 45 45 48 49 50 47 51 53 53 53 51 51 48

GFSWCAN_sfc_rhum_285.txt.gz
RH
84 82 76 77 76 74 75 78 80 80 81 79 74 72 74 75 78 82 70 74 72 71 64 62 59 64 58 55 59 57 50 52 52 49 32 27 28 28 26 31 30 28 27 26 34 35 26 28 34 31 31 37 34 36
82 82 78 78 77 78 77 76 79 80 81 80 78 73 73 77 78 80 76 65 62 68 60 58 50 47 50 48 53 52 57 56 55 55 55 54 34 31 34 24 34 26 24 25 22 23 40 37 33 31 29 40 40 40
84 83 81 78 76 74 74 75 78 80 81 80 79 77 74 77 77 76 69 72 69 68 60 63 49 44 45 42 37 55 48 52 55 51 55 59 69 36 31 29 33 40 42 36 40 45 41 38 38 35 34 36 42 38
84 82 80 79 77 78 79 80 81 81 82 80 79 78 76 78 79 77 70 66 71 68 72 54 44 50 41 44 46 42 40 50 49 54 57 59 61 41 33 36 33 32 41 50 56 51 44 42 37 37 46 46 49 52
86 81 80 77 77 78 79 81 83 83 82 82 82 80 81 79 83 81 85 76 67 68 73 66 52 39 42 40 44 47 53 62 51 58 63 61 49 44 43 44 37 37 50 36 34 46 52 50 54 50 53 53 54 60
84 82 83 80 78 79 78 80 81 83 83 84 81 81 81 81 83 72 87 86 72 64 83 70 49 57 50 50 47 53 64 75 79 66 57 52 49 46 45 40 40 38 46 39 43 39 37 47 55 50 54 57 55 57
79 79 80 81 81 79 79 80 80 80 81 81 82 80 81 86 92 79 81 92 81 73 78 80 82 58 65 54 58 62 69 86 87 81 64 54 50 49 49 40 41 41 46 47 40 51 62 55 59 53 56 63 70 68
82 83 84 83 83 81 79 78 77 76 75 75 77 79 85 87 89 83 68 84 86 85 82 93 83 80 65 74 86 67 90 91 91 58 71 59 49 49 47 47 49 49 50 48 46 32 45 50 58 63 63 66 69 75
85 84 84 84 82 82 79 77 74 73 75 77 76 81 82 88 91 58 75 83 94 98 98 96 90 75 80 74 81 91 88 91 88 78 65 52 52 52 46 58 58 56 52 54 50 55 56 58 66 69 67 65 78 90
85 85 84 83 84 84 85 80 77 80 81 82 83 71 80 66 71 87 97 96 98 99 100 93 79 89 88 77 79 85 90 90 96 70 64 64 45 53 58 56 57 57 58 57 64 68 65 69 70 71 68 69 80 88
86 86 84 83 82 82 84 81 78 81 82 77 73 82 87 85 99 97 95 96 87 98 86 81 75 76 89 88 78 83 89 89 96 77 68 54 44 68 61 61 66 58 53 45 47 54 60 68 72 73 75 78 83 86
84 85 85 84 83 82 83 81 82 79 72 69 73 87 94 98 99 94 91 94 96 81 66 73 80 77 94 91 84 89 80 85 87 80 76 58 47 76 67 72 71 63 55 55 57 65 67 69 69 73 80 79 83 90
84 85 84 82 84 83 86 84 79 81 82 82 96 97 95 87 100 99 99 97 96 86 85 77 93 95 98 94 90 85 78 87 94 83 69 59 68 83 84 81 78 75 70 70 72 71 73 75 73 74 79 83 86 86
86 85 85 83 84 85 83 79 79 74 75 92 96 100 97 95 88 96 91 90 87 92 91 97 94 98 98 98 98 86 88 89 83 71 64 71 82 88 89 86 81 79 76 77 78 75 76 79 83 83 81 79 80 80
85 85 86 82 83 81 78 79 80 72 92 98 96 96 96 86 88 90 93 97 93 92 97 99 98 98 97 97 96 96 97 84 70 66 67 76 92 95 94 90 88 88 88 88 84 84 87 89 87 89 83 75 75 75
85 84 81 84 81 82 82 79 73 76 92 98 97 96 93 98 95 96 94 97 94 98 98 100 91 93 92 96 94 90 72 64 67 79 86 91 95 96 98 96 96 93 88 81 84 86 88 89 89 89 80 76 74 73
84 80 83 80 83 85 82 73 88 97 94 90 95 95 96 95 95 94 96 96 98 98 94 95 80 81 94 95 94 76 74 85 91 96 97 97 98 98 98 98 97 94 93 88 84 83 83 82 81 82 85 78 68 68
74 77 79 82 84 80 92 94 96 93 94 95 98 95 96 94 93 94 95 98 99 99 98 89 96 79 87 86 85 94 95 98 98 99 99 99 98 98 98 98 96 92 90 88 84 79 77 76 75 72 74 70 66 60
81 81 87 91 90 92 97 98 99 97 95 97 97 96 96 96 96 96 98 98 98 98 98 94 89 96 96 97 94 94 98 98 98 99 99 98 98 98 98 95 92 89 83 78 71 65 65 64 62 60 58 52 48 47
93 91 88 87 86 86 91 96 99 99 98 98 99 99 99 99 99 95 96 97 97 96 96 97 98 99 99 99 99 98 98 98 98 98 99 99 98 93 91 87 81 72 68 67 62 65 56 52 45 44 42 44 45 44
84 81 80 82 82 82 79 91 97 99 99 100 99 99 99 97 97 95 96 99 97 99 98 99 99 99 99 99 99 99 99 98 98 98 98 98 90 78 88 72 69 63 60 57 55 58 51 47 46 40 38 36 38 39
87 84 83 83 88 89 96 85 96 96 100 98 99 98 98 98 95 96 95 94 99 100 100 100 99 99 100 99 99 98 97 96 96 96 89 89 90 90 90 87 68 57 54 50 45 42 44 45 43 39 36 40 42 36
86 88 93 94 98 97 92 88 93 93 96 93 93 94 96 99 99 96 98 99 99 99 99 100 99 99 99 98 97 96 92 92 95 76 77 79 91 97 95 92 67 60 60 52 42 41 45 61 52 39 42 42 40 39
87 96 96 97 97 97 91 92 93 97 95 95 97 96 97 99 97 93 99 99 99 98 99 99 99 99 98 98 99 99 98 95 80 77 73 65 61 65 62 59 52 49 45 48 46 46 45 42 53 38 37 38 38 37
96 93 98 100 92 94 93 91 94 94 95 95 96 96 98 98 96 98 99 98 99 99 99 99 99 99 99 99 99 99 97 88 69 70 65 63 64 60 56 46 44 39 35 36 40 43 43 40 34 33 32 31 34 36
98 80 97 91 86 89 87 96 96 96 96 94 97 98 99 98 96 99 99 99 99 99 99 100 99 99 99 99 97 95 93 83 60 65 66 58 54 52 45 45 42 39 34 30 32 33 34 32 32 34 32 38 58 34
95 90 95 94 98 99 98 97 98 99 96 98 99 97 94 95 98 98 98 92 97 100 99 100 99 96 96 99 94 79 62 66 66 56 64 58 50 46 38 34 35 32 34 34 31 30 30 31 30 31 30 30 30 30
82 86 95 94 97 97 98 98 97 96 92 86 94 90 86 87 95 92 88 83 90 99 98 98 97 88 81 57 53 45 52 48 48 44 40 37 37 34 37 37 39 67 33 30 29 30 28 28 29 29 30 29 29 32
88 81 85 84 83 91 83 80 80 71 77 81 81 86 84 73 72 74 82 83 86 87 89 86 73 62 47 42 41 45 38 40 48 53 50 42 31 30 30 32 38 35 31 32 65 46 34 30 30 30 30 30 30 31
74 76 75 73 75 77 67 68 71 67 69 71 71 69 71 69 71 70 69 73 90 82 79 79 62 40 45 59 61 60 59 39 35 36 34 33 29 28 30 30 34 33 32 31 30 35 68 38 45 30 31 31 31 32
71 71 73 71 71 63 62 59 57 57 60 58 58 58 60 64 65 66 61 68 68 67 63 63 59 61 57 55 57 58 58 56 53 34 26 23 23 27 29 31 31 30 30 28 27 26 26 28 28 30 32 34 35 40
70 70 67 70 66 61 59 58 58 58 57 57 54 52 47 48 51 48 60 60 59 56 64 54 48 48 48 44 45 44 65 38 40 40 45 40 38 33 29 28 28 26 27 26 28 28 30 31 31 32 30 33 33 33
67 70 73 70 64 60 55 56 60 60 58 59 57 56 51 50 49 43 52 52 46 44 46 45 40 41 47 47 45 44 69 44 56 67 67 64 63 50 29 26 27 27 28 26 25 25 29 30 29 32 33 36 36 36

GFSWCAN_sfc_rhum_291.txt.gz
RH
83 83 80 80 77 75 77 74 70 70 73 74 77 76 75 73 78 62 37 41 44 36 25 29 30 36 30 31 29 35 27 21 17 19 14 13 11 11 11 13 15 15 14 11 12 16 16 11 13 13 15 16 14 16
84 82 82 81 78 80 79 78 74 71 72 74 78 77 78 74 78 73 38 33 35 44 30 29 28 28 31 33 32 28 32 35 30 22 16 15 14 11 14 14 10 13 10 10 10 11 16 14 11 11 10 16 16 16
84 83 83 82 81 79 76 74 73 74 73 74 78 75 76 75 76 72 41 36 36 37 26 21 21 18 18 22 22 33 26 31 32 30 34 27 38 22 15 12 16 13 13 11 12 16 14 12 9 10 11 13 15 15
84 83 82 80 81 80 76 73 72 75 77 78 78 75 77 77 77 78 42 31 36 35 33 18 16 24 20 18 21 21 25 27 27 30 31 28 25 22 17 15 13 10 15 15 22 18 15 12 13 12 12 14 16 17
85 83 81 82 81 78 76 76 77 75 78 78 78 77 77 77 79 62 38 32 31 42 40 29 20 18 18 20 24 23 23 25 30 33 32 28 23 24 22 20 15 12 14 12 15 22 23 22 18 15 17 20 19 21
84 83 82 82 82 79 77 79 76 75 78 80 78 74 77 78 78 42 35 35 32 34 42 31 18 22 18 17 22 26 25 25 29 32 32 27 21 29 24 18 15 10 11 11 12 12 15 14 18 17 21 21 21 24
82 82 83 81 81 79 79 76 76 75 74 77 78 77 76 78 51 46 55 58 65 38 41 35 24 18 21 22 22 22 23 25 28 33 36 33 27 31 30 25 14 9 11 16 19 16 18 18 21 19 21 22 33 30
82 83 81 81 82 77 73 73 72 70 70 70 71 73 76 79 75 52 35 68 61 51 42 43 29 30 22 25 27 21 25 25 31 34 36 36 29 31 36 23 18 14 13 18 22 13 14 18 20 23 23 27 33 38
84 82 81 81 82 80 75 74 71 70 69 71 73 72 55 56 38 59 65 70 54 76 88 53 33 32 24 25 21 24 25 32 26 35 39 38 35 40 35 33 25 20 23 21 18 14 17 22 26 26 29 34 42 50
81 80 80 80 80 80 80 76 72 72 73 76 61 66 58 70 75 66 54 49 48 48 73 79 36 46 31 27 28 37 35 37 34 31 31 37 36 33 30 30 33 35 33 24 24 24 25 28 30 35 35 40 47 53
83 81 80 79 79 78 79 80 74 73 84 59 82 70 69 73 66 90 64 55 42 60 56 43 35 35 27 42 44 30 36 32 38 32 34 37 36 38 32 32 33 30 31 28 23 20 24 31 35 36 39 48 52 56
81 84 84 82 84 81 81 80 76 75 53 59 59 50 49 71 84 78 54 44 44 41 28 32 32 32 31 32 57 60 45 39 41 22 31 34 31 45 39 34 34 34 33 29 24 24 29 33 34 41 49 53 54 59
82 85 85 86 84 77 79 80 75 73 71 43 61 72 91 86 99 99 81 62 45 32 68 60 44 30 32 35 42 70 51 42 34 36 36 32 39 38 46 39 33 37 36 30 28 28 33 36 44 50 53 54 56 60
84 85 85 83 78 76 78 79 76 67 50 59 72 99 75 65 54 46 48 42 66 71 75 72 68 74 33 40 49 63 36 33 42 42 37 29 48 52 50 45 42 41 37 32 33 36 42 51 54 57 56 56 57 61
85 86 86 80 75 73 70 68 71 51 55 73 72 86 64 39 42 48 56 48 44 51 59 72 88 70 67 60 48 56 54 45 34 36 35 30 64 62 60 52 46 41 37 40 44 48 52 55 60 61 57 53 56 58
90 89 66 77 72 74 79 75 58 55 58 58 62 71 61 79 73 65 65 69 59 67 80 74 80 91 67 43 62 64 52 40 32 26 23 34 75 77 74 61 54 48 48 47 49 52 56 59 59 58 54 54 55 57
94 54 81 74 77 84 83 90 89 79 78 70 82 79 89 91 94 94 92 81 77 93 97 89 91 85 62 50 54 40 53 61 56 72 73 53 77 74 76 76 67 54 53 53 56 58 57 55 55 57 63 59 53 58
65 61 80 80 80 91 96 95 91 88 95 88 97 93 95 94 96 97 96 96 98 98 93 89 74 96 69 56 45 35 46 50 55 68 79 86 80 75 82 67 70 62 61 62 62 60 59 59 59 55 59 58 58 58
61 68 84 86 89 93 96 97 95 96 95 95 94 89 90 92 95 94 94 97 97 96 97 97 88 83 83 74 65 55 67 69 96 96 92 95 95 94 93 92 84 75 68 73 67 59 56 53 50 52 50 49 48 47
92 92 92 92 92 93 91 95 98 96 95 94 96 96 97 98 96 95 98 97 98 98 95 91 92 96 94 92 97 98 97 98 99 99 99 99 97 94 94 96 97 92 73 72 65 68 66 64 61 55 45 50 48 42
88 71 79 82 91 82 75 80 96 94 97 97 96 97 95 92 97 96 97 98 99 99 98 97 97 99 98 98 98 98 99 99 99 98 97 96 97 94 97 96 92 93 82 71 68 72 85 88 81 39 38 34 29 26
64 75 71 76 85 79 84 70 97 96 98 97 96 95 94 85 92 80 83 95 96 98 98 100 99 99 99 99 99 98 98 97 98 99 99 98 98 95 87 80 82 75 83 82 79 68 61 52 37 38 31 27 26 22
84 71 78 83 96 92 87 77 96 93 97 92 94 93 93 93 82 67 84 92 97 98 99 99 98 99 99 98 97 96 94 92 96 96 93 84 89 81 68 67 66 62 72 83 69 52 41 45 30 24 24 23 24 24
88 76 82 80 83 86 69 88 89 95 94 94 93 89 86 87 92 93 94 97 96 98 99 99 99 99 99 97 98 98 95 88 90 82 75 57 50 48 50 47 40 38 39 37 35 34 27 26 34 24 23 24 24 24
87 81 87 100 63 78 80 82 84 93 88 91 91 87 85 82 85 89 98 97 96 98 98 99 99 99 99 99 86 85 69 68 74 83 90 88 83 54 63 65 57 47 34 35 32 26 28 29 26 25 23 22 24 24
96 68 92 84 80 86 88 92 90 94 96 93 94 91 93 91 86 96 98 99 99 98 99 99 99 99 99 98 81 63 51 50 60 81 93 92 91 92 93 91 92 94 80 42 33 33 29 28 23 24 21 26 47 22
90 74 86 83 81 88 88 84 87 95 92 94 94 84 90 89 95 96 96 98 99 99 99 99 99 98 98 96 91 65 43 47 50 42 40 43 46 52 68 67 43 33 32 30 30 26 23 21 20 19 20 20 20 20
68 64 75 66 71 74 78 82 82 86 85 88 85 88 89 95 97 98 99 97 98 99 99 99 98 94 97 94 60 48 44 31 29 27 24 23 23 22 21 20 20 49 20 19 19 18 18 18 18 18 20 20 21 20
59 53 59 69 64 70 61 65 79 74 81 91 82 86 89 91 87 88 96 98 98 98 94 90 88 45 44 42 35 38 37 40 42 38 35 30 27 25 22 20 19 18 17 19 71 37 23 19 19 18 19 19 19 19
50 37 54 54 55 60 55 50 47 42 42 42 51 61 73 94 88 85 97 95 94 97 94 81 45 48 44 35 38 36 31 29 28 28 30 28 26 22 22 21 20 19 18 19 18 22 58 26 30 19 21 19 20 20
38 41 50 50 56 46 40 35 36 37 36 34 34 38 44 74 88 79 77 77 93 96 91 60 36 41 33 34 39 36 31 25 24 23 19 16 15 16 17 19 19 19 19 19 19 19 17 18 18 20 20 21 22 25
46 49 46 57 56 44 42 44 40 37 33 37 33 28 28 32 43 47 59 53 52 50 47 46 44 40 45 37 30 30 51 21 20 18 18 17 18 19 17 16 16 16 19 19 19 18 20 18 17 18 19 22 23 25
39 37 38 41 47 46 36 36 35 36 33 34 32 28 28 30 36 31 33 34 35 36 34 30 29 31 33 31 30 27 41 27 46 70 62 69 74 46 21 15 15 16 16 16 14 16 20 22 20 23 23 24 25 25